Zurück zum Katalog

STARLINK-30133

AktivKommunikationVLEO
NORAD 56837·PAYLOAD·🇺🇸 United States

Gestartet Jun 4, 2023 von Cape Canaveral Space Force Station

Loading…

Nächste Überflüge (nächste 24 Stunden)

TLE

AktuellSource: CelesTrak SupGP

Epoche: Sep 15, 2026, 03:01 UTC

1 56837C 23079Q   26258.12618056  .00022927  00000+0  83012-3 0  2588
2 56837  43.0011 116.8173 0001436 268.6674 128.6668 15.27579194    18

Verfolge STARLINK-30133 in Echtzeit mit AllMySat

Download on the App Store